SCP
0 0 0 0 0 0 0 0 0 0 0 0 0 0 0 0 0 0 0 0 0 0 0 1 0 0 0 0 0 0 0 0 1 1 1 1 1 1 1 1 1 1 1 1
0 0 0 0 0 0 0 0 0 0 0 0 0 0 0 0 0 0 0 0 0 0 0 0 0 0 0 0 0 0 0 0 0 1 1 0 0 0 1 1 1 1 1 1
0 0 0 0 0 0 0 0 0 0 0 0 0 0 0 0 0 0 0 0 0 0 0 0 0 0 0 0 0 0 0 0 0 0 0 0 0 0 0 0 1 1 1 1
0 0 0 0 0 0 0 0 0 0 0 0 0 0 0 0 0 0 0 0 0 0 0 0 0 0 0 0 0 0 0 0 0 0 0 0 0 0 0 1 1 1 1 1
0 0 0 0 0 0 0 0 0 0 0 0 0 0 0 0 0 0 0 0 0 0 0 0 0 0 0 0 0 0 0 0 0 0 0 0 0 1 1 1 1 1 1 1
0 0 0 0 0 0 0 0 0 0 0 0 0 0 0 0 0 0 0 0 0 0 0 0 0 0 0 0 0 0 0 0 0 0 0 0 1 1 1 1 1 1 1 1
0 0 0 0 0 0 0 0 0 0 0 0 0 0 0 0 0 0 0 0 0 0 0 0 0 0 0 0 0 0 0 0 0 0 0 0 1 1 1 1 1 1 1 1
0 0 0 0 0 0 1 1 0 0 0 0 0 0 0 0 0 0 0 0 0 0 0 0 0 0 0 0 0 0 0 0 0 0 0 0 0 1 1 1 1 0 0 0
0 0 0 0 0 0 1 0 0 0 0 0 0 0 0 0 0 0 0 0 0 0 0 0 0 0 0 0 0 0 0 0 0 0 0 0 1 1 1 1 1 0 0 0
0 0 0 0 0 0 0 0 0 0 0 0 0 0 0 0 0 0 0 0 0 0 0 0 0 0 0 0 0 0 0 0 0 0 0 1 1 1 1 0 0 0 0 0
0 0 0 0 0 0 0 0 0 0 0 0 0 0 0 0 0 0 0 0 0 0 0 0 0 0 0 0 0 0 0 0 0 0 0 0 0 0 0 0 0 0 0 0
0 0 0 0 0 0 0 0 0 0 0 0 0 0 0 0 0 0 0 0 0 0 0 0 0 0 0 0 0 0 0 0 0 0 0 0 0 0 0 0 0 0 0 0
0 0 0 0 0 0 0 0 0 0 0 0 0 0 0 0 0 0 0 0 0 0 0 0 0 0 0 0 0 0 0 0 0 0 0 0 0 0 0 0 0 0 0 0
0 0 0 0 0 0 0 0 0 0 0 0 0 0 0 0 0 0 0 0 0 0 0 0 0 0 0 0 0 0 0 0 0 0 0 0 0 0 0 0 0 0 0 0
0 0 0 0 0 0 0 0 0 0 0 0 0 0 0 0 0 0 0 0 0 0 0 0 0 0 0 0 0 0 0 0 0 0 0 0 0 0 0 0 0 0 0 0
0 0 0 0 0 0 0 0 0 0 0 0 0 0 0 0 0 0 0 0 0 0 0 0 0 0 0 0 0 0 0 0 0 0 0 0 0 0 0 0 0 0 0 0
0 0 0 0 0 1 1 0 0 0 0 0 0 0 0 0 0 0 0 0 0 0 0 0 0 0 0 0 0 0 0 0 0 0 0 0 0 0 0 0 0 0 0 0
0 0 0 0 0 1 1 0 0 0 0 0 0 0 0 0 0 0 0 0 0 0 0 0 0 0 0 0 0 0 0 0 0 0 0 0 0 0 0 0 0 0 0 0
1 1 1 1 1 1 1 1 1 0 0 0 0 0 0 0 0 0 0 0 0 0 0 0 0 0 0 0 0 0 0 0 0 0 0 0 0 0 0 0 0 0 0 0
1 1 1 1 1 1 1 1 1 1 1 1 1 1 1 1 0 0 0 0 0 0 0 0 0 0 0 0 0 0 0 0 0 0 0 0 0 0 0 0 0 0 0 0
2 1 1 1 1 1 1 1 1 1 1 1 1 1 1 1 1 0 0 0 0 0 0 0 0 0 0 0 0 0 0 0 0 0 0 0 0 0 0 0 0 0 0 0
2 2 2 2 2 2 1 1 1 1 1 1 1 1 1 1 1 1 0 0 0 0 0 0 0 0 0 0 0 0 0 0 0 0 0 0 0 0 0 0 0 0 0 0
2 2 2 2 2 2 2 2 2 2 1 1 1 1 1 1 1 1 0 0 0 0 0 0 0 0 0 0 0 0 0 0 0 0 0 0 0 0 0 0 0 0 0 0
1 2 2 3 2 2 2 2 2 2 2 1 1 1 2 1 1 1 0 0 0 0 0 0 0 0 0 0 0 0 0 0 0 0 0 0 0 0 0 0 0 0 0 0
1 1 1 2 2 2 2 2 2 2 2 2 1 1 1 1 1 0 0 0 0 0 0 0 0 0 0 0 0 0 0 0 0 0 0 0 0 0 0 0 0 0 0 0
1 1 1 1 2 2 1 1 2 2 2 1 1 1 1 1 1 1 0 0 0 0 0 0 0 0 0 0 0 0 0 0 0 0 0 0 0 0 0 0 0 0 0 0
0 1 1 1 1 1 1 1 2 2 2 1 1 1 2 1 1 1 0 0 0 0 0 0 0 0 0 0 0 0 0 0 0 0 0 0 0 0 0 0 0 0 0 0
Wind_Speed
9 7 6 5 5 5 5 6 8 9 9 11 11 11 10 10 10 10 10 10 10 9 8 8 9 9 9 10 10 10 10 11 10 10 10 9 9 10 10 10 11 9 9 9
11 9 9 8 5 4 5 6 8 9 8 11 10 10 10 10 10 9 10 11 12 11 11 10 10 10 11 10 10 10 11 11 10 10 11 10 10 10 10 10 10 9 10 10
10 9 10 7 3 2 5 7 8 8 8 10 11 10 10 9 8 9 11 11 12 12 11 9 10 9 10 11 11 11 11 12 11 11 12 11 13 12 11 11 10 9 10 10
10 10 9 2 1 3 4 6 7 6 8 10 10 10 8 9 9 9 10 11 11 11 11 10 10 10 10 12 12 12 12 11 11 12 13 13 12 12 11 10 9 9 10 10
9 10 7 1 2 1 4 6 5 6 8 9 10 10 5 10 9 9 10 10 10 10 11 10 11 11 11 12 12 13 13 12 13 13 14 14 13 12 11 10 10 10 9 9
9 12 13 4 6 3 3 0 7 7 7 8 9 8 7 10 9 9 9 9 9 10 10 10 11 11 11 13 13 13 13 13 14 13 13 14 13 12 10 9 10 10 9 9
10 12 5 6 5 2 5 4 5 6 6 7 6 6 8 9 9 9 9 9 10 10 9 9 10 10 12 13 13 13 13 13 13 13 12 12 10 9 9 9 9 9 9 8
7 9 3 3 1 4 5 3 4 5 6 6 6 7 8 9 9 9 10 10 11 9 9 8 9 10 12 12 12 13 13 13 13 13 12 11 10 9 9 8 8 8 7 7
3 2 3 1 2 4 3 2 3 4 5 5 6 7 8 8 8 9 10 10 10 10 10 9 10 10 12 12 12 13 13 13 13 13 11 10 9 9 8 6 6 5 5 5
5 6 4 3 1 2 2 0 2 2 3 4 5 7 7 7 7 8 9 9 9 11 11 11 11 11 11 11 11 13 13 13 12 11 11 9 7 7 6 6 5 5 5 4
8 7 7 5 2 2 2 2 1 2 3 3 4 6 6 6 7 7 8 8 9 9 10 11 11 11 11 11 11 13 13 12 12 10 9 8 7 6 6 4 3 4 5 4
5 3 4 3 1 3 3 2 2 1 2 3 3 5 6 6 6 7 8 8 9 10 10 11 11 11 11 10 11 12 11 11 10 9 8 7 7 7 5 5 4 4 4 4
5 6 5 1 2 2 3 3 3 3 2 2 3 3 5 5 6 7 8 9 9 10 10 10 11 10 11 11 11 12 12 11 9 9 8 8 7 7 6 4 4 5 5 5
3 3 4 4 3 3 4 3 3 3 2 2 1 2 4 5 6 7 8 9 9 10 10 10 11 11 11 12 11 12 12 11 10 8 8 8 7 6 5 5 4 2 3 6
3 5 6 6 6 5 5 5 5 5 3 2 1 2 4 5 6 7 7 8 9 10 10 10 10 11 12 12 12 12 11 9 9 9 8 7 6 6 6 5 4 3 1 2
6 7 8 7 7 7 7 7 7 5 3 2 1 2 3 4 6 6 7 8 9 10 9 9 10 11 12 12 12 10 9 11 11 9 8 7 6 6 6 5 4 3 3 1
7 7 8 8 8 7 8 8 7 5 3 2 1 1 2 4 5 6 7 8 8 8 7 8 10 11 12 11 11 9 9 10 12 9 7 7 6 6 5 4 4 3 3 2
6 8 8 8 8 8 7 7 6 4 3 3 2 1 2 4 5 6 7 7 8 7 6 8 10 11 11 10 9 9 8 8 8 7 7 7 7 6 5 4 4 4 3 1
7 8 8 7 6 5 4 4 4 4 4 3 2 1 2 3 4 5 6 7 8 6 7 9 10 10 9 10 11 8 8 8 8 7 7 7 7 6 5 4 4 4 4 4
9 9 8 7 5 2 2 3 4 4 4 4 3 3 4 4 4 5 5 6 3 4 6 8 9 8 9 10 13 9 8 8 8 7 7 7 7 6 5 5 4 4 4 3
10 10 9 7 4 2 1 2 3 4 4 4 4 4 4 4 5 5 5 5 3 5 6 7 4 6 8 11 12 8 8 8 8 7 7 7 6 6 6 4 4 4 3 3
12 11 10 8 6 3 1 3 4 4 5 5 5 5 4 5 5 5 5 1 3 4 5 5 5 7 10 12 8 7 7 8 7 7 7 7 6 6 6 5 4 3 3 3
12 11 11 9 8 5 3 4 6 6 6 6 6 6 5 3 4 5 4 2 3 3 4 3 4 7 12 9 6 6 7 8 8 7 7 7 7 6 6 6 4 4 3 3
12 11 11 10 9 8 7 7 7 7 8 8 8 7 5 4 4 4 1 5 4 1 3 3 1 6 9 5 5 6 6 7 7 8 8 7 6 6 6 6 5 4 3 3
12 12 12 11 10 9 8 8 8 9 10 8 9 8 7 5 4 2 1 1 5 1 3 2 3 5 5 5 5 6 6 6 7 8 7 7 6 6 6 5 5 5 5 4
12 11 10 10 9 8 9 8 8 7 8 8 8 7 6 5 4 3 3 3 1 1 2 2 1 2 3 5 5 6 6 6 7 7 8 7 7 6 6 6 7 5 5 4
13 11 9 10 9 9 8 7 7 6 6 6 6 6 5 5 4 3 3 2 1 1 2 2 3 3 4 4 5 5 6 6 7 7 7 7 7 7 7 7 6 5 5 6
Wind_Direction
308 308 316 324 322 332 344 344 333 342 349 29 26 10 4 356 347 345 353 355 354 349 344 339 335 332 328 327 326 324 319 315 312 310 308 306 303 300 296 290 288 286 281 274
307 311 306 296 293 315 332 331 328 330 354 31 15 3 353 345 343 351 354 351 346 342 340 338 335 331 331 327 325 323 319 317 315 315 312 309 305 300 296 293 291 288 281 274
300 298 295 307 301 298 329 334 334 336 4 12 358 352 344 350 10 2 352 347 344 341 337 336 335 336 330 328 325 323 320 316 316 314 311 306 303 302 297 294 291 289 282 274
292 296 295 320 42 29 349 329 329 349 15 5 353 344 0 43 26 3 353 347 343 337 334 335 337 334 331 327 324 322 319 318 318 315 309 305 301 298 295 290 286 280 276 273
293 295 296 202 164 61 337 325 10 22 3 352 348 325 63 44 21 8 356 346 338 335 334 336 337 337 330 324 324 323 322 322 319 315 309 305 303 299 295 292 287 280 274 267
276 292 299 316 113 95 304 72 42 19 2 348 343 329 359 13 9 4 352 343 337 337 337 337 336 335 327 326 326 326 325 322 317 312 308 305 300 298 295 291 287 284 278 270
272 282 306 86 115 265 310 61 18 2 351 346 1 333 339 354 3 356 346 340 342 341 338 339 337 335 327 326 327 327 324 319 316 312 307 302 300 299 296 294 291 286 282 276
270 284 333 94 357 18 62 50 349 351 349 353 341 335 346 355 355 348 342 343 343 338 337 338 339 335 328 327 329 326 322 319 316 313 311 311 309 304 302 299 297 293 286 280
331 324 163 285 20 85 97 352 342 347 352 345 337 340 347 351 349 343 342 343 339 335 335 338 340 337 329 328 328 326 323 319 317 316 313 311 311 309 308 304 300 301 298 291
297 292 268 268 239 139 145 262 323 333 337 345 338 338 346 347 343 342 341 339 337 334 336 337 338 336 330 329 329 327 323 320 318 317 317 319 315 312 311 316 318 317 312 311
271 272 272 265 241 207 175 182 268 314 344 349 340 339 344 341 344 342 336 336 336 334 334 336 336 334 333 336 333 328 323 320 320 318 317 316 315 312 312 323 320 308 316 321
296 332 299 288 195 187 195 216 240 303 324 333 341 339 338 340 342 337 335 335 335 335 336 336 334 334 336 338 334 328 323 323 321 319 321 320 319 318 308 293 276 259 262 287
321 313 306 326 159 174 207 215 204 199 235 288 323 338 337 337 338 339 335 336 338 337 335 333 334 336 339 338 333 327 321 319 317 319 322 321 322 322 322 309 261 256 255 259
307 301 287 268 246 215 228 228 211 211 212 231 298 331 331 335 337 336 334 336 337 335 333 336 336 339 341 337 332 326 322 319 319 321 321 322 324 321 319 319 319 296 230 235
278 254 253 243 235 227 212 222 221 231 223 222 274 319 332 334 330 330 335 338 338 333 338 340 339 342 343 335 331 326 323 323 326 322 318 319 323 322 324 326 329 324 304 217
270 261 258 244 233 228 221 226 232 239 233 220 262 318 328 323 325 329 340 343 340 336 337 340 343 345 338 331 330 325 321 319 322 323 322 325 331 331 333 335 338 339 333 327
268 263 260 258 252 238 232 231 229 228 219 202 208 284 310 320 322 331 341 342 335 326 336 349 350 342 330 330 335 328 324 323 323 323 326 332 333 334 338 339 341 341 342 358
285 277 271 260 254 250 238 230 217 189 190 195 205 241 298 310 319 331 333 333 322 320 351 357 352 331 325 340 340 325 319 321 325 328 329 332 333 331 335 339 347 356 342 325
312 303 296 288 272 254 239 227 205 174 168 175 198 251 278 292 310 319 324 320 313 327 358 351 338 323 335 349 342 319 319 323 328 330 329 330 329 333 342 350 350 358 2 353
332 325 318 311 304 276 209 180 173 170 166 169 197 245 271 289 304 308 313 305 333 18 347 338 327 335 343 345 336 317 322 328 330 332 334 336 338 339 347 357 358 1 0 351
346 336 331 329 331 331 150 154 169 181 178 183 204 239 260 276 287 294 297 305 60 49 339 316 327 357 347 334 315 319 332 334 333 333 334 334 335 338 350 2 6 3 2 5
350 344 339 335 329 310 192 163 187 204 202 209 220 230 248 263 274 281 276 293 75 62 333 332 13 2 338 322 315 330 334 335 336 336 335 335 337 343 350 0 10 6 10 18
343 339 333 329 323 308 259 211 203 208 213 217 227 232 240 264 285 289 294 64 64 46 322 4 18 338 325 317 325 338 339 340 339 337 336 335 340 351 357 5 13 7 11 22
328 324 319 314 305 286 264 246 221 212 215 216 223 222 220 236 245 248 329 122 126 33 325 85 12 319 312 315 336 343 344 342 339 336 334 336 346 359 4 8 7 2 13 27
312 309 303 293 284 275 259 246 234 220 219 221 224 216 212 214 232 261 314 170 143 196 315 147 197 287 313 344 350 345 344 344 337 330 333 341 349 357 1 5 5 358 10 23
297 289 289 283 279 276 273 263 252 234 224 222 221 215 205 193 190 193 207 230 180 204 294 357 348 301 344 355 355 351 345 342 341 345 346 344 349 354 356 1 4 360 5 19
286 282 274 270 270 267 266 264 257 248 234 231 229 214 191 176 178 191 206 227 253 320 355 10 2 5 9 4 359 354 351 349 349 352 352 349 349 352 358 1 2 5 9 22